Home > Weather > Mount Isa > Past weeks

Flag for Australia Past Weather in Mount Isa, Queensland, Australia — Yesterday and Last 2 Weeks

Now
57 °F

Clear.


Feels Like: 57 °F
Forecast: 52 / 87 °F
Wind: No wind

Location: Mount Isa Amo

Current Time: Aug 29, 2016 at 12:18:23 AM

Latest Report: Aug 29, 2016 at 12:00 AM


Visibility: N/A

Pressure: 30.01 "Hg

Humidity: 67%

Dew Point: 46 °F

Location of Mount IsaLocation

Past Weather in Mount Isa — Graph

°F

Mount Isa Temperature Yesterday

Maximum temperature yesterday: 82 °F (at 4:00 PM)
Minimum temperature yesterday: 50 °F (at 12:00 AM)
Average temperature yesterday: 65 °F

High & Low Weather Summary for the Past Weeks

 TemperatureHumidityPressure
High88 °F (Aug 19, 2:00 PM)100% (Aug 23, 11:30 PM)30.21 "Hg (Aug 23, 11:30 PM)
Low39 °F (Aug 26, 6:00 AM)17% (Aug 14, 4:00 PM)29.74 "Hg (Aug 23, 2:30 PM)
Average69 °F47%30.00 "Hg
* Reported Aug 13 11:00 PM — Aug 28 11:00 PM, Mount Isa, Weather by CustomWeather, © 2016

Note: Actual official high and low records may vary slightly from our data, if they occured in-between our weather recording intervals... More about our weather records

Advertising

Mount Isa Weather History for the Previous 24 Hours

Scroll right to see more
 ConditionsComfort  
Time TempWeatherWind HumidityBarometerVisibility
11:00 PM
Sun, Aug 28
57 °FClear.No wind67%30.01 "HgN/A
10:00 PM59 °FClear.No wind59%30.01 "HgN/A
9:30 PM59 °FClear.No wind59%30.01 "HgN/A
9:00 PM61 °FClear.No wind55%30.01 "HgN/A
8:30 PM61 °FClear.No wind52%30.01 "HgN/A
8:00 PM63 °FClear.No wind52%30.01 "HgN/A
7:30 PM64 °FClear.5 mph46%30.01 "HgN/A
7:00 PM72 °FClear.6 mph36%30.01 "HgN/A
6:30 PM77 °FClear.6 mph30%29.98 "HgN/A
6:00 PM81 °FClear.6 mph26%29.98 "HgN/A
5:30 PM81 °FSunny.9 mph26%29.98 "HgN/A
5:00 PM82 °FSunny.9 mph25%29.98 "HgN/A
4:00 PM82 °FSunny.12 mph25%29.98 "HgN/A
3:00 PM81 °FSunny.13 mph26%29.98 "HgN/A
2:00 PM81 °FSunny.13 mph26%30.01 "HgN/A
1:30 PM79 °FSunny.14 mph26%30.04 "HgN/A
1:00 PM79 °FSunny.15 mph26%30.04 "HgN/A
12:30 PM79 °FSunny.15 mph24%30.07 "HgN/A
12:00 PM75 °FSunny.15 mph27%30.07 "HgN/A
11:30 AM75 °FSunny.15 mph27%30.09 "HgN/A
11:00 AM73 °FSunny.15 mph27%30.09 "HgN/A
10:00 AM70 °FSunny.16 mph31%30.12 "HgN/A
9:00 AM64 °FSunny.13 mph40%30.12 "HgN/A
8:30 AM61 °FSunny.13 mph42%30.12 "HgN/A
8:00 AM59 °FSunny.13 mph45%30.12 "HgN/A
7:30 AM57 °FSunny.13 mph51%30.09 "HgN/A
7:00 AM52 °FSunny.14 mph62%30.09 "HgN/A
6:30 AM52 °FSunny.9 mph58%30.09 "HgN/A
6:00 AM52 °FSunny.7 mph58%30.07 "HgN/A
5:00 AM57 °FClear.9 mph48%30.07 "HgN/A
4:00 AM55 °FClear.7 mph51%30.07 "HgN/A
3:00 AM57 °FClear.6 mph51%30.09 "HgN/A
2:30 AM55 °FClear.6 mph51%30.09 "HgN/A
2:00 AM57 °FClear.7 mph48%30.09 "HgN/A
1:30 AM57 °FClear.8 mph48%30.09 "HgN/A
1:00 AM57 °FClear.7 mph51%30.12 "HgN/A
12:30 AM55 °FClear.6 mph55%30.12 "HgN/A
12:00 AM50 °FClear.7 mph58%30.12 "HgN/A
Weather by CustomWeather, © 2016

See weather overviewHow to use our weather pages